This is the latest recevied weather packets stored in our database for station/object KJ5IIV. If no packets are shown the sender has not sent any weather packets the latest 10 day(s).
| Time | Temp. | Humidity | Pressure | Rain* | Wind** | Luminosity | Snow |
|---|---|---|---|---|---|---|---|
| 1777865201 | 17.22° C | 67% | 1016.6 hPa | 0 mm | - | 0 W/m² | - |
| 1777864898 | 17.22° C | 66% | 1016.5 hPa | 0 mm | - | 0 W/m² | - |
| 1777864595 | 17.78° C | 65% | 1016.5 hPa | 0 mm | - | 0 W/m² | - |
| 1777864292 | 17.78° C | 64% | 1016.5 hPa | 0 mm | - | 0 W/m² | - |
| 1777863988 | 17.78° C | 63% | 1016.6 hPa | 0 mm | - | 0 W/m² | - |
| 1777863685 | 17.78° C | 64% | 1016.7 hPa | 0 mm | - | 0 W/m² | - |
| 1777863382 | 17.78° C | 64% | 1016.8 hPa | 0 mm | - | 0 W/m² | - |
| 1777863079 | 17.78° C | 64% | 1016.6 hPa | 0 mm | - | 0 W/m² | - |
| 1777862776 | 17.78° C | 61% | 1016.6 hPa | 0 mm | - | 0 W/m² | - |
| 1777862473 | 18.33° C | 62% | 1016.7 hPa | 0 mm | - | 0 W/m² | - |
| 1777862169 | 18.33° C | 62% | 1016.7 hPa | 0 mm | - | 0 W/m² | - |
| 1777861865 | 18.33° C | 61% | 1016.7 hPa | 0 mm | - | 0 W/m² | - |
| 1777861562 | 18.33° C | 61% | 1016.6 hPa | 0 mm | - | 0 W/m² | - |
| 1777861258 | 18.89° C | 61% | 1016.3 hPa | 0 mm | - | 0 W/m² | - |
| 1777860955 | 18.89° C | 59% | 1016.4 hPa | 0 mm | - | 0 W/m² | - |
| 1777860652 | 18.89° C | 60% | 1016.4 hPa | 0 mm | - | 0 W/m² | - |
| 1777860349 | 18.89° C | 60% | 1016.4 hPa | 0 mm | - | 0 W/m² | - |
| 1777860045 | 19.44° C | 59% | 1016.3 hPa | 0 mm | - | 0 W/m² | - |
| 1777859742 | 19.44° C | 59% | 1016.3 hPa | 0 mm | - | 0 W/m² | - |
| 1777859438 | 19.44° C | 60% | 1016.2 hPa | 0 mm | - | 0 W/m² | - |
| 1777859134 | 19.44° C | 56% | 1016.2 hPa | 0 mm | - | 0 W/m² | - |
| 1777858832 | 19.44° C | 60% | 1016.5 hPa | 0 mm | - | 0 W/m² | - |
| 1777858529 | 19.44° C | 59% | 1016.4 hPa | 0 mm | - | 0 W/m² | - |
| 1777858226 | 20° C | 61% | 1016.3 hPa | 0 mm | - | 0 W/m² | - |
| 1777857924 | 20° C | 60% | 1016.2 hPa | 0 mm | - | 0 W/m² | - |
* Rain latest hour (hover to see other rain measurements)
** Current wind speed in m/s (hover to see current wind gust speed)